FALCON 9 DEB (47409 NORAD) Tracking and Keplerian Element Data

This shows tracking and keplerian element data for the satellite.

Feedback or suggestion? Click here.




ElementValue
Catalog47409
NameFALCON 9 DEB
Epoch Orbit537
Epoch Day51.91561758
Epoch Year2021
RAAN47.9209
Inclination53.043
Eccentricity0.0002817
Argument of Perigee296.315
Mean Anonmoly63.7609
Mean Motion16.46641259
Decay Rate0.10053368
L11 47409U 21005BN 21051.91561758 .10053368 12567-4 21988-3 0 9995
L22 47409 53.0430 47.9209 0002817 296.3150 63.7609 16.46641259 5376

Live tracking and technical data element details for FALCON 9 DEB (NORAD 47409). FALCON 9 DEB can be tracked NOW for your location showing map with azimuth and elevation plus other details from your city location.

Track the satellite on the map from your city or location and see movement details for azimuth, elevation, latitude, longitude, range, height, and movement on the map or in text.







IsCatalogInMostPopularTable: catalog: 47409, numindb: 13
Update: records affected: 1



GetName: 47409 FALCON 9 DEB

Hit Count: updated at: Sat, 10 Apr 2021 19:34:52 GMT